This is the latest recevied weather packets stored in our database for station/object KD4EG. If no packets are shown the sender has not sent any weather packets the latest 10 day(s).
| Time | Temp. | Humidity | Pressure | Rain* | Wind** | Luminosity | Snow |
|---|---|---|---|---|---|---|---|
| 1788553374 | 35° C | 49% | 1015.9 hPa | 0 mm | - | 247 W/m² | - |
| 1788553070 | 35.56° C | 48% | 1016.2 hPa | 0 mm | - | 158 W/m² | - |
| 1788552769 | 35.56° C | 46% | 1015.7 hPa | 0 mm | - | 419 W/m² | - |
| 1788552464 | 36.11° C | 45% | 1016 hPa | 0 mm | - | 373 W/m² | - |
| 1788552159 | 36.11° C | 45% | 1016 hPa | 0 mm | - | 481 W/m² | - |
| 1788551858 | 36.11° C | 45% | 1016.4 hPa | 0 mm | - | 469 W/m² | - |
| 1788551557 | 36.11° C | 46% | 1016.5 hPa | 0 mm | - | 517 W/m² | - |
| 1788551252 | 36.11° C | 47% | 1016.5 hPa | 0 mm | - | 513 W/m² | - |
| 1788550950 | 35.56° C | 48% | 1016.4 hPa | 0 mm | - | 551 W/m² | - |
| 1788550646 | 35.56° C | 48% | 1016.9 hPa | 0 mm | - | 557 W/m² | - |
| 1788550342 | 35° C | 49% | 1017.1 hPa | 0 mm | - | 572 W/m² | - |
| 1788550037 | 34.44° C | 50% | 1017 hPa | 0 mm | - | 262 W/m² | - |
| 1788549732 | 35° C | 49% | 1016.6 hPa | 0 mm | - | 201 W/m² | - |
| 1788549429 | 35° C | 49% | 1016.9 hPa | 0 mm | - | 373 W/m² | - |
| 1788549125 | 34.44° C | 49% | 1017 hPa | 0 mm | - | 148 W/m² | - |
| 1788548821 | 35° C | 48% | 1017 hPa | 0 mm | - | 126 W/m² | - |
| 1788548517 | 35.56° C | 48% | 1017.2 hPa | 0 mm | - | 105 W/m² | - |
| 1788548214 | 36.11° C | 47% | 1017.1 hPa | 0 mm | - | 105 W/m² | - |
| 1788547908 | 36.11° C | 46% | 1017.1 hPa | 0 mm | - | 247 W/m² | - |
| 1788547606 | 36.11° C | 45% | 1017.2 hPa | 0 mm | - | 678 W/m² | - |
| 1788547302 | 35.56° C | 47% | 1017.3 hPa | 0 mm | - | 670 W/m² | - |
| 1788546998 | 35.56° C | 47% | 1017.4 hPa | 0 mm | - | 649 W/m² | - |
| 1788546697 | 35.56° C | 49% | 1017.5 hPa | 0 mm | - | 666 W/m² | - |
| 1788546393 | 35° C | 50% | 1017.6 hPa | 0 mm | - | 216 W/m² | - |
| 1788546088 | 35° C | 49% | 1017.7 hPa | 0 mm | - | 274 W/m² | - |
* Rain latest hour (hover to see other rain measurements)
** Current wind speed in m/s (hover to see current wind gust speed)